AO-07 1 07530U 74089B 18137.54052841 -.00000040 00000-0 29123-4 0 9998 2 07530 101.6846 105.3232 0012448 036.1529 072.0088 12.53632579990527 UO-11 1 14781U 84021B 18137.57048462 .00000074 00000-0 15262-4 0 9993 2 14781 097.6521 175.0875 0008606 173.3582 186.7748 14.83003765818909 LO-19 1 20442U 90005G 18137.41809036 .00000005 00000-0 18089-4 0 9992 2 20442 098.6085 076.1020 0010712 238.5958 121.4179 14.32895216479429 HUBBLE 1 20580U 90037B 18137.20775463 .00000515 00000-0 20617-4 0 9999 2 20580 28.4701 319.8991 0002702 163.8434 156.0477 15.09038046340787 MET-2/21 1 22782U 93055A 18137.52086385 .00000014 00000-0 -48621-6 0 9993 2 22782 082.5469 118.2699 0021486 210.0112 288.1869 13.83808933247664 AO-27 1 22825U 93061C 18136.52512195 -.00000012 00000-0 13186-4 0 9994 2 22825 098.8603 112.0710 0009530 080.3253 279.9005 14.30029930284776 IO-26 1 22826U 93061D 18137.52860103 -.00000001 00000-0 17190-4 0 9998 2 22826 098.8546 113.1340 0010000 068.4218 291.8028 14.30361428285125 FO-29 1 24278U 96046B 18137.61636567 -.00000059 00000-0 -24037-4 0 9994 2 24278 98.5198 340.5842 0350175 190.0812 169.3175 13.53083715 74103 NOAA-15 1 25338U 98030A 18137.59599778 .00000054 00000-0 41688-4 0 9990 2 25338 098.7709 154.0055 0009658 321.2941 038.7546 14.25851944040407 GO-32 1 25397U 98043D 18137.38859645 -.00000012 00000-0 13713-4 0 9991 2 25397 098.6481 078.3399 0002397 099.3783 260.7667 14.23645376031125 ISS 1 25544U 98067A 18137.54996707 .00001794 00000-0 34422-4 0 9997 2 25544 051.6400 171.4365 0004053 093.8958 030.5332 15.54066679113751 NO-44 1 26931U 01043C 18137.80152651 -.00000037 00000-0 17658-4 0 9999 2 26931 67.0509 307.8133 0007437 278.7244 81.3014 14.30504978868202 SO-50 1 27607U 02058C 18137.57585752 .00000005 00000-0 21548-4 0 9990 2 27607 064.5543 183.6040 0061903 335.1612 024.6513 14.75448379828318 CO-55 1 27844U 03031E 18137.56387048 .00000046 00000-0 40596-4 0 9991 2 27844 098.6873 146.6714 0011048 099.4946 260.7481 14.22112352771806 CO-57 1 27848U 03031J 18137.51467578 .00000038 00000-0 37130-4 0 9998 2 27848 098.6960 147.0107 0010885 108.7268 251.5091 14.21716440771674 RS-22 1 27939U 03042A 18137.82954505 .00000081 00000-0 23143-4 0 9993 2 27939 97.9858 277.7560 0011739 241.8446 244.3895 14.66684836782365 NOAA-18 1 28654U 05018A 18137.57352099 .00000001 00000-0 25910-4 0 9991 2 28654 099.1477 172.3994 0013866 209.5219 150.5170 14.12375704669364 CO-58 1 28895U 05043F 18137.37393751 .00000147 00000-0 36964-4 0 9996 2 28895 097.9050 290.0852 0017297 162.3778 197.8028 14.63543697669138 Falconsat-3 1 30776U 07006E 18137.30104765 .00002638 00000-0 78770-4 0 9994 2 30776 035.4349 103.3522 0002067 128.7346 231.3565 15.34414079619576 CO-65 1 32785U 08021C 18137.52066189 .00000245 00000-0 32169-4 0 9999 2 32785 097.5483 151.1616 0014215 135.3689 224.8675 14.88114343544545 AAUSAT2 1 32788U 08021F 18137.55417594 .00000897 00000-0 88365-4 0 9997 2 32788 097.5239 165.3330 0013620 091.7803 268.4978 14.94327057545501 DO-64 1 32789U 08021G 18137.61571532 .00001447 00000-0 10322-3 0 9997 2 32789 097.5149 193.1971 0013610 048.8559 311.3840 15.06012622547086 CO-66 1 32791U 08021J 18137.79358825 .00000450 00000-0 51379-4 0 9998 2 32791 97.5377 156.7114 0014909 116.9562 243.3181 14.90542187544983 RS-30 1 32953U 08025A 18137.77712774 .00000022 00000-0 91242-4 0 9995 2 32953 82.5063 31.5926 0018138 277.9310 81.9711 12.43082934452996 PRISM 1 33493U 09002B 18137.87316905 .00000868 00000-0 82454-4 0 9991 2 33493 98.1346 38.7962 0016552 59.5167 300.7685 14.96195071505813 NOAA-19 1 33591U 09005A 18137.53454213 .00000064 00000-0 60084-4 0 9994 2 33591 099.1399 114.9566 0014879 055.4315 304.8258 14.12278485477850 TISAT-1 1 36799U 10035E 18137.30838319 .00000476 00000-0 54508-4 0 9991 2 36799 98.1017 272.7143 0011221 314.4316 45.5982 14.90784704425555 JUGNU 1 37839U 11058B 18137.48213031 .00000333 00000-0 35596-4 0 9998 2 37839 019.9605 223.4408 0018759 268.6645 190.2281 14.12619246340918 SRMSAT 1 37841U 11058D 18137.44615990 .00000312 00000-0 26513-4 0 9993 2 37841 019.9719 272.2283 0011829 152.3205 251.5050 14.10606124340444 AO-71 1 37854U 11061E 18137.10908965 .00001275 00000-0 74041-4 0 9999 2 37854 101.7052 186.1647 0164035 165.6150 194.9815 15.05368250356704 HRBE 1 37855U 11061F 18137.68020477 .00001841 00000-0 10138-3 0 9991 2 37855 101.7185 184.6120 0176979 172.5055 187.8867 15.04346190357068 ALMASAT-1 1 38078U 12006B 18137.79112589 .00034013 39924-5 30462-3 0 9998 2 38078 69.4318 300.7785 0245900 152.9270 270.0113 15.38878466335972 HORYU-2 1 38340U 12025D 18137.62684048 .00000209 00000-0 38767-4 0 9992 2 38340 98.3678 158.2962 0010461 313.0048 47.0283 14.75547359322602 RS-40 1 38735U 12041C 18137.59806829 -.00000004 00000-0 -10043-3 0 9998 2 38735 082.4730 115.6927 0017558 024.7065 335.4851 12.42576298263201 BEESAT-3 1 39134U 13015E 18137.58850027 .00001295 00000-0 70820-4 0 9993 2 39134 064.8634 225.8838 0014762 216.1129 143.9002 15.19102642279874 BEESAT-2 1 39136U 13015G 18137.58525971 .00001016 00000-0 62382-4 0 9997 2 39136 064.8693 241.5587 0023524 238.9415 120.9402 15.16096683279562 ZACUBE-1 1 39417U 13066B 18137.57178362 .00000198 00000-0 31571-4 0 9998 2 39417 097.5896 167.8414 0057559 255.0522 104.4314 14.80927106242264 TRITON-1 1 39427U 13066M 18137.82550866 .00000251 00000-0 48140-4 0 9990 2 39427 97.6408 135.7636 0114016 357.4571 2.6041 14.67657233240123 GOMX-1 1 39430U 13066Q 18137.85553227 .00000241 00000-0 52203-4 0 9995 2 39430 97.6957 116.9180 0153037 66.5143 295.2058 14.59070072238733 LO-74 1 39440U 13066AA 18137.55943635 .00000212 00000-0 36742-4 0 9997 2 39440 097.6028 154.6126 0079033 295.5056 063.7996 14.75662685240201 AO-73 1 39444U 13066AE 18137.58379010 .00000284 00000-0 41650-4 0 9997 2 39444 097.5905 169.3393 0056746 250.3638 109.1446 14.81702116240530 SPROUT 1 39770U 14029E 18137.83844458 .00000677 00000-0 82027-4 0 9999 2 39770 97.8749 239.1401 0007671 315.6788 44.3811 14.86816621215856 DUCHIFAT-1 1 40021U 14033M 18137.57614916 .00000494 00000-0 56714-4 0 9991 2 40021 097.9169 056.2387 0011503 281.8653 078.1274 14.90289904212396 NANOSATCBR1 1 40024U 14033Q 18137.60210057 .00000341 00000-0 41675-4 0 9997 2 40024 097.9105 054.5685 0010835 284.1216 075.8797 14.89554987211802 EO-79 1 40025U 14033R 18137.49809497 .00000325 00000-0 40822-4 0 9992 2 40025 097.9065 052.9575 0011108 289.1813 070.8201 14.88702274211718 DTUSAT-2 1 40030U 14033W 18137.72393894 .00000274 00000-0 35719-4 0 9995 2 40030 97.9013 51.9176 0010511 282.7522 77.2520 14.88311090212208 EO-80 1 40032U 14033Y 18137.30994829 .00000312 00000-0 39834-4 0 9991 2 40032 97.9020 51.5080 0010485 284.8866 75.1189 14.88248053212130 ANTELSAT 1 40034U 14033AA 18137.58696390 .00000237 00000-0 42909-4 0 9998 2 40034 097.8152 015.3353 0057609 297.4954 062.0406 14.73913726209644 VELOX-1 1 40057U 14034E 18137.49349994 .00000406 00000-0 64577-4 0 9992 2 40057 98.2002 248.0162 0012352 70.5253 289.7288 14.77413669209112 DAURIA DX 1 1 40071U 14037C 18137.68156161 .00000149 00000-0 26547-4 0 9993 2 40071 98.3704 267.6908 0009769 62.6898 297.5313 14.81154978208483 UKUBE-1 1 40074U 14037F 18137.67085316 .00000359 00000-0 50453-4 0 9994 2 40074 98.3835 273.3955 0005749 62.7636 297.4162 14.83787315208774 HODOYOSHI-1 1 40299U 14070B 18137.77583003 .00000672 00000-0 31612-4 0 9991 2 40299 97.3776 220.0858 0013078 5.7505 107.4365 15.22870894195851 CHUBUSAT-1 1 40300U 14070C 18137.77784953 .00000759 00000-0 36624-4 0 9995 2 40300 97.3655 216.1215 0020642 14.0345 101.8084 15.21540504195658 QSAT-EOS 1 40301U 14070D 18137.54379255 .00001869 00000-0 77844-4 0 9998 2 40301 097.3598 217.0625 0026829 004.4697 103.1152 15.24676495195750 FIREBIRD FU3 1 40377U 15003B 18137.58501127 .00002444 00000-0 10335-3 0 9998 2 40377 099.0896 033.2622 0131010 332.9918 026.4533 15.17144465181677 FIREBIRD FU4 1 40378U 15003C 18137.24429439 .00002378 00000-0 10056-3 0 9993 2 40378 99.0899 32.9101 0131260 334.0118 25.4557 15.17152249181631 GRIFEX 1 40379U 15003D 18137.61667512 .00001678 00000-0 77145-4 0 9996 2 40379 099.0931 029.6495 0138401 344.9305 014.7817 15.14280023181460 NO-84 1 40654U 15025D 18137.35208129 .00007804 00000-0 12975-3 0 03015 2 40654 054.9916 175.5580 0161281 032.0357 329.0242 15.39955206051097 NO-83 1 40655U 15025E 18137.31304144 .00022004 00000-0 23608-3 0 03469 2 40655 054.9735 122.3469 0114911 063.3349 297.9292 15.55935813051479 DEORBITSAIL 1 40719U 15032E 18137.61923500 .00000432 00000-0 69345-4 0 9998 2 40719 097.9482 031.6287 0017115 141.8935 218.3489 14.76416668153660 NUDT-PHONESAT 1 40900U 15049B 18137.52183928 .00002262 00000-0 10428-3 0 9990 2 40900 097.4413 146.1301 0014893 131.6738 228.5775 15.21205636147259 XW-2A 1 40903U 15049E 18137.84130381 .00002247 00000-0 57540-4 0 9993 2 40903 97.3869 172.3923 0015489 134.9855 225.2649 15.40391312149136 XW-2C 1 40906U 15049H 18137.80749570 .00000668 00000-0 39052-4 0 9991 2 40906 97.4601 141.8569 0016322 131.0711 229.1935 15.15157560146895 XW-2D 1 40907U 15049J 18137.82898764 .00000751 00000-0 43295-4 0 9991 2 40907 97.4574 141.5784 0015745 128.9049 231.3590 15.15306486146905 LILACSAT-2 1 40908U 15049K 18137.53458800 .00000379 00000-0 24712-4 0 9992 2 40908 097.4686 140.6878 0017285 131.7077 228.5636 15.13491086146737 XW-2F 1 40910U 15049M 18137.80131520 .00001131 00000-0 61354-4 0 9992 2 40910 97.4577 142.8113 0016557 125.1963 235.0823 15.16481018146858 XW-2B 1 40911U 15049N 18137.71330528 .00000716 00000-0 41503-4 0 9994 2 40911 97.4610 141.9913 0015635 129.7859 230.4753 15.15250792146780 DCBB 1 40912U 15049P 18137.58742789 .00001238 00000-0 62765-4 0 9999 2 40912 097.4507 145.3500 0016918 114.6676 002.9380 15.18690767147020 TW-1C 1 40926U 15051B 18137.84566444 .00008789 00000-0 16608-3 0 9990 2 40926 97.1855 180.3338 0010908 36.1292 84.0293 15.48598015148617 TW-1A 1 40928U 15051D 18137.37345000 .00003059 00000-0 82224-4 0 9996 2 40928 097.1872 171.9701 0013664 075.2126 341.7404 15.38569552148047 IO-86 1 40931U 15052B 18137.12288009 .00000700 00000-0 83292-5 0 9996 2 40931 005.9992 011.6249 0013851 291.8268 068.0413 14.76575389142408 LQSat 1 40958U 15057A 18137.73367156 .00000038 00000-0 13632-4 0 9992 2 40958 97.9417 211.5426 0019596 75.7580 284.5803 14.73030678140361 AO-85 1 40967U 15058D 18137.43330114 .00000091 00000-0 28002-4 0 03310 2 40967 064.7796 284.6344 0204455 323.1849 035.5346 14.75708293049115 ATHENOXAT-1 1 41168U 15077C 18137.42704419 .00002191 00000-0 83487-4 0 9998 2 41168 14.9901 245.4217 0011928 335.2553 85.6835 15.12725134133719 ChubuSat-2 1 41338U 16012B 18137.43664629 .00000311 00000-0 17559-4 0 9995 2 41338 031.0021 149.0176 0013842 129.0031 231.1838 14.99972627123211 ChubuSat-3 1 41339U 16012C 18137.45424450 .00000340 00000-0 19796-4 0 9991 2 41339 031.0099 147.5436 0013405 136.5509 223.6185 15.00161091123205 Horyu-4 1 41340U 16012D 18137.39703345 .00000446 00000-0 27406-4 0 9993 2 41340 031.0041 142.8720 0014091 148.0013 212.1481 15.00970836123261 OUFTI-1 1 41458U 16025C 18137.71284444 .00002004 00000-0 10853-3 0 9996 2 41458 98.1377 198.9293 0169259 249.8268 108.4678 15.04568979112856 e-st@r-II 1 41459U 16025D 18137.38177815 .00001917 00000-0 10446-3 0 9993 2 41459 098.1381 198.4323 0170285 251.6973 106.5695 15.04305833112795 AAUSAT4 1 41460U 16025E 18137.72155983 .00001595 00000-0 86945-4 0 9995 2 41460 98.1310 199.2446 0161355 246.5933 111.8268 15.05694357112902 LO-87 1 41557U 16033B 18137.78679809 .00001409 00000-0 53944-4 0 9992 2 41557 97.4365 222.0640 0012322 265.5003 94.4829 15.28194158109511 NuSat2 1 41558U 16033C 18137.79034410 .00001395 00000-0 53589-4 0 9996 2 41558 97.4393 222.1608 0011553 262.7830 97.2096 15.28112983109502 Lapan A3 1 41603U 16040E 18137.78652328 .00000151 00000-0 10293-4 0 9992 2 41603 97.4142 199.8580 0013433 354.1608 109.6133 15.19556069105460 Swayam 1 41607U 16040J 18137.22542062 .00001728 00000-0 78266-4 0 9993 2 41607 097.4154 200.6413 0013460 354.5689 005.5399 15.22146756105398 Pratham 1 41783U 16059A 18137.42699167 .00000090 00000-0 26928-4 0 9998 2 41783 098.1198 199.4799 0033439 189.9276 170.1269 14.62920708087463 AlSat 1N 1 41789U 16059G 18137.75192214 .00000107 00000-0 29500-4 0 9999 2 41789 98.1205 200.9599 0028371 180.6703 179.4468 14.64151855 87561 ScatSat 1 41790U 16059H 18137.76132239 .00000024 00000-0 17290-4 0 9994 2 41790 98.2625 186.0993 0018201 180.8395 179.2773 14.50871739 86776 TY-1 1 41844U 16066D 18137.77180556 .00001645 00000-0 72368-4 0 9995 2 41844 97.4056 145.1418 0016568 138.4124 218.1602 15.23171433 84245 Pegasus-1 1 41846U 16066F 18137.55845419 .00000234 00000-0 46742-4 0 9999 2 41846 098.7564 165.3794 0367815 338.0418 020.5347 14.37325554079507 CAS-2T 1 41847U 16066G 18137.56337174 .00000067 00000-0 21359-4 0 9996 2 41847 098.7526 165.8138 0365755 335.6410 022.7859 14.37890104079925 TO-89 1 41932U 98067KU 18137.41238513 .00034635 00000-0 23617-3 0 9999 2 41932 051.6338 139.2176 0005364 065.1066 295.0491 15.74492176075916 AOBA-V3LOX3 1 41935U 98067KX 18137.56307552 .00040265 00000-0 23687-3 0 9991 2 41935 051.6353 134.9184 0005394 066.5785 293.5782 15.77789384076081 EO-88 1 42017U 17008BX 18137.57300598 .00001790 00000-0 76049-4 0 9994 2 42017 097.4502 202.8101 0007957 121.0900 239.1119 15.24352748069404 HAVELSAT 1 42700U 98067LH 18137.60356402 .00025071 00000-0 21147-3 0 9992 2 42700 051.6341 151.0043 0003929 101.8507 258.2930 15.69633247057214 SOMP2 1 42701U 98067LJ 18137.57357369 .00023223 00000-0 20290-3 0 9997 2 42701 051.6340 152.3056 0003979 102.7941 257.3501 15.68824252057186 PHOENIX 1 42706U 98067LP 18137.46278049 .00019367 00000-0 17583-3 0 9992 2 42706 051.6341 153.0716 0002581 048.3632 311.7585 15.68015255057084 X-CubeSat 1 42707U 98067LQ 18137.46640406 .00030207 00000-0 24898-3 0 9996 2 42707 051.6310 151.5336 0003092 045.1469 314.9779 15.70083934057096 qbee 1 42708U 98067LR 18137.46099253 .00027468 00000-0 23417-3 0 9996 2 42708 051.6346 152.2937 0002937 046.2874 313.8366 15.69320784057040 ZA-AeroSat 1 42713U 98067LU 18137.52997785 .00017235 00000-0 16528-3 0 9992 2 42713 051.6333 155.0099 0003620 044.9301 315.1987 15.66746808056726 LINK 1 42714U 98067LV 18137.55784127 .00056529 00000-0 34652-3 0 9997 2 42714 051.6252 146.0654 0005230 039.9424 320.1960 15.76712130056957 UPSat 1 42716U 98067LX 18137.46539751 .00040253 00000-0 28573-3 0 9992 2 42716 051.6325 148.5401 0003345 075.1535 284.9834 15.73492040056934 SpaceCube 1 42717U 98067LY 18137.48634536 .00024279 00000-0 20791-3 0 9996 2 42717 051.6321 152.4491 0002981 088.3610 271.7728 15.69288073056120 Hoopoe 1 42718U 98067LZ 18137.56625276 .00032397 00000-0 25163-3 0 9995 2 42718 051.6334 149.9861 0003273 078.3857 281.7508 15.71472870056168 Challenger 1 42721U 98067MA 18137.82508150 .00093894 00000-0 45842-3 0 9994 2 42721 51.6273 141.0801 0006095 71.2025 288.9638 15.81539689 56004 NJUST-1 1 42722U 98067MB 18137.57289955 .00016453 00000-0 16352-3 0 9996 2 42722 051.6343 156.0641 0005650 099.9383 260.2251 15.65881765055786 UNSW-EC0 1 42723U 98067MC 18137.57923278 .00035989 00000-0 27243-3 0 9996 2 42723 051.6351 150.0989 0005239 084.5270 275.6326 15.72021658055848 DUTHsat 1 42724U 98067MD 18137.49763673 .00077207 00000-0 40692-3 0 9991 2 42724 051.6325 144.1986 0005377 070.3933 289.7649 15.79956733055856 LO-90 1 42725U 98067ME 18137.85120593 .00027560 00000-0 24743-3 0 9996 2 42725 51.6343 152.6672 0004700 94.3860 265.7674 15.68045317 55753 nSIGHT1 1 42726U 98067MF 18137.52677346 .00007108 00000-0 88719-4 0 9994 2 42726 051.6369 161.8061 0005565 109.7423 250.4171 15.61090238055615 SNUSAT 1B 1 42727U 98067MG 18137.47870614 .00023247 00000-0 21052-3 0 9990 2 42727 051.6324 154.6341 0007195 067.8972 292.2787 15.67923190055662 QBITO 1 42728U 98067MH 18137.51552642 .00026996 00000-0 22896-3 0 9995 2 42728 051.6362 152.7191 0003168 073.8199 286.3147 15.69456165055536 Aalto-2 1 42729U 98067MJ 18137.49947875 .00027867 00000-0 23398-3 0 9995 2 42729 051.6336 152.5622 0003180 072.5845 287.5500 15.69681798055542 SUSat 1 42730U 98067MK 18137.46465700 .00022628 00000-0 20107-3 0 9991 2 42730 051.6339 153.8224 0003099 077.5225 282.6118 15.68429838055528 i-INSPIRE II 1 42731U 98067ML 18137.45615040 .00036642 00000-0 27139-3 0 9998 2 42731 051.6323 149.9616 0007060 055.0918 305.0742 15.72514937055618 PolyITAN-2-SAU 1 42732U 98067MM 18137.53143722 .00026760 00000-0 22281-3 0 9994 2 42732 051.6334 151.9950 0007027 055.8563 304.3100 15.69887722055590 ExAlta-1 1 42734U 98067MP 18137.44941472 .00040159 00000-0 29087-3 0 9993 2 42734 051.6301 149.8971 0007180 072.0345 288.1436 15.72995226055565 Aoxiang-1 1 42735U 98067MQ 18137.86295580 .00019639 00000-0 19178-3 0 9991 2 42735 51.6337 154.2304 0006170 98.9849 261.1846 15.66174630 56961 BeEagleSat 1 42736U 98067MR 18137.56314951 .00019820 00000-0 18411-3 0 9994 2 42736 051.6333 154.4691 0005890 095.5388 264.6280 15.67417972055620 CAS-4B 1 42759U 17034B 18137.76727241 .00000347 00000-0 34945-4 0 9991 2 42759 43.0193 250.2657 0010344 276.9368 212.2362 15.09281825 50856 CAS-4A 1 42761U 17034D 18137.81914907 .00000228 00000-0 27605-4 0 9990 2 42761 43.0185 249.7723 0010660 278.4944 223.9933 15.09356995 50859 UCLSat 1 42765U 17036A 18137.10781757 .00001401 00000-0 64769-4 0 9999 2 42765 97.4033 197.4543 0011917 177.3599 182.7702 15.21773561 49980 NIUSat 1 42766U 17036B 18137.72678056 .00001132 00000-0 55070-4 0 9991 2 42766 97.4034 197.4054 0016499 164.9485 195.2245 15.20329608 49906 LituanicaSAT 2 1 42768U 17036D 18137.61530794 .00002356 00000-0 10825-3 0 9994 2 42768 097.4042 197.5709 0016338 167.4948 192.6697 15.21246830049918 Aalto 1 1 42775U 17036L 18137.69917982 .00000928 00000-0 45246-4 0 9997 2 42775 97.4027 197.5775 0014669 164.8436 195.3242 15.20697242 49866 URSA MAIOR 1 42776U 17036M 18137.22667736 .00001053 00000-0 50830-4 0 9991 2 42776 97.4034 197.1580 0014492 166.6159 193.5464 15.20770148 49796 Max Valier Sat 1 42778U 17036P 18137.52894997 .00001191 00000-0 56339-4 0 9990 2 42778 097.4059 197.7476 0013049 169.6513 190.4994 15.21244912049845 Pegasus 1 42784U 17036V 18137.20717066 .00001405 00000-0 65258-4 0 9991 2 42784 097.4036 197.4857 0012443 177.4196 182.7106 15.21586845049807 NUDATSat 1 42787U 17036Y 18137.53127790 .00001994 00000-0 89907-4 0 9999 2 42787 097.4044 197.9772 0012084 175.7158 184.4184 15.22130033049709 SUCHAI 1 1 42788U 17036Z 18137.16975871 .00001595 00000-0 73123-4 0 9990 2 42788 097.4038 197.5344 0012083 177.2506 182.8799 15.21842024049878 SKCUBE 1 42789U 17036AA 18137.23422583 .00001545 00000-0 70993-4 0 9993 2 42789 097.4036 197.5950 0011907 176.9107 183.2205 15.21810994049808 VZLUSAT 1 1 42790U 17036AB 18137.12658781 .00001924 00000-0 86838-4 0 9990 2 42790 097.4039 197.5866 0011593 177.1491 182.9813 15.22151460049795 VENTA 1 1 42791U 17036AC 18137.61134138 .00001413 00000-0 65120-4 0 9994 2 42791 097.4035 198.0037 0011564 175.9825 184.1506 15.21867587049856 Robusta 1B 1 42792U 17036AD 18137.73172445 .00001458 00000-0 66915-4 0 9993 2 42792 97.4033 198.1410 0011517 175.8112 184.3222 15.21951038 49893 D-SAT 1 42794U 17036AF 18137.70703770 .00000338 00000-0 34867-4 0 9990 2 42794 97.5942 193.5100 0127673 24.3594 336.3587 14.90853926 49180 BIRD-J 1 42820U 98067MU 18137.48873001 .00019296 00000-0 18591-3 0 9991 2 42820 051.6334 156.9792 0004377 039.8300 320.3017 15.66535019049069 BIRD-G 1 42821U 98067MV 18137.46727308 .00019261 00000-0 18903-3 0 9997 2 42821 051.6335 157.5873 0004295 041.7167 318.4155 15.66073914049039 BIRD-M 1 42822U 98067MW 18137.51709661 .00019346 00000-0 18825-3 0 9993 2 42822 051.6336 157.1734 0004313 043.4289 316.7046 15.66285266049044 BIRD-B 1 42823U 98067MX 18137.51479071 .00019569 00000-0 18968-3 0 9998 2 42823 051.6342 157.1737 0006343 062.4625 297.7014 15.66363398049041 BIRD-N 1 42824U 98067MY 18137.47145465 .00019860 00000-0 19381-3 0 9995 2 42824 051.6347 157.6485 0006213 062.5194 297.6432 15.66183570049034 TechnoSat 1 42829U 17042E 18137.82489650 .00000221 00000-0 27896-4 0 9992 2 42829 97.5992 41.3178 0013015 304.5840 55.4150 14.90812899 45804 TOMSK-TPU 120 1 42910U 98067MZ 18137.52376134 .00013857 00000-0 15266-3 0 9994 2 42910 051.6334 160.9557 0006579 083.8645 276.3099 15.63415790042580 TANYUSHA 1 1 42911U 98067NA 18137.58934515 .00016399 00000-0 17360-3 0 9995 2 42911 051.6342 159.9286 0006304 077.9354 282.2347 15.64280291042583 TANYUSHA 2 1 42912U 98067NB 18137.38951320 .00015580 00000-0 16861-3 0 9993 2 42912 51.6353 161.5643 0005480 86.8685 273.2937 15.63766656 42568 SFERA 2 1 42913U 98067NC 18137.59791806 .00036943 00000-0 29934-3 0 9999 2 42913 051.6318 154.6746 0004580 073.6361 286.5139 15.70385580042676 TNS 0-2 1 42914U 98067ND 18137.56505835 .00013154 00000-0 14647-3 0 9996 2 42914 051.6347 161.2683 0005614 082.9433 277.2200 15.63199845042557 QIKCOM-1 1 42983U 98067NF 18137.70381050 .00002739 00000-0 45461-4 0 9995 2 42983 51.6385 168.9854 0004842 82.1724 277.9817 15.56055047 31473 AO-91 1 43017U 17073E 18137.34340044 .00001155 00000-0 95847-4 0 9994 2 43017 097.7066 069.7601 0260369 012.3798 348.3647 14.78040023026559 EcAMSat 1 43019U 98067NG 18137.53758044 .00004319 00000-0 65949-4 0 9997 2 43019 051.6385 169.3759 0005724 058.3333 301.8216 15.56772393113778 PICSAT 1 43132U 18004X 18137.61601523 .00001429 00000-0 64631-4 0 9990 2 43132 097.5362 200.2102 0009512 196.3781 163.7149 15.22563682019063 AO-92 1 43137U 18004AC 18137.40886946 .00001215 00000-0 55274-4 0 9992 2 43137 097.5359 200.0221 0008942 198.7662 161.3245 15.22646497019038 TianYi 2 1 43155U 18008A 18137.69458954 .00001173 00000-0 74880-4 0 9998 2 43155 97.5251 212.6845 0016483 247.5937 232.3092 15.10511674 17882 Zhou Enlai 1 43156U 18008B 18137.73746336 .00001125 00000-0 73136-4 0 9998 2 43156 97.5305 212.6994 0013625 242.6305 234.3557 15.09969347 17888 TianYi 6 1 43158U 18008D 18137.76567828 .00001303 00000-0 84745-4 0 9996 2 43158 97.5262 212.6167 0012703 240.7609 272.0423 15.09680761 17865 S-Net G 1 43186U 18014G 18137.79799744 -.00000127 00000-0 -60640-5 0 9995 2 43186 97.7268 46.6612 0009764 252.0806 107.9351 14.96438107 15776 S-Net H 1 43187U 18014H 18137.79793848 -.00000132 00000-0 -65341-5 0 9994 2 43187 97.7265 46.6589 0009764 252.0861 107.9296 14.96438980 15775 S-Net J 1 43188U 18014J 18137.73101122 -.00000136 00000-0 -68274-5 0 9999 2 43188 97.7268 46.5960 0009744 252.3631 107.6526 14.96439858 15764 S-Net K 1 43189U 18014K 18137.73108850 -.00000133 00000-0 -65580-5 0 9999 2 43189 97.7266 46.5922 0009754 252.3610 107.6547 14.96438655 14316 FMN 1 1 43192U 18015A 18137.61241691 .00002273 00000-0 10030-3 0 9995 2 43192 097.3511 267.1420 0015547 248.6280 111.3299 15.22685994015868 Shaonian Xing 1 43199U 18015H 18137.61225885 .00001666 00000-0 72338-4 0 9994 2 43199 097.3290 266.9878 0016195 263.6943 096.2450 15.23590256015885 UBAKUSAT 1 43466U 98067NP 18137.48537815 .00009638 00000-0 14785-3 0 9998 2 43466 051.6396 171.7209 0001373 026.5730 114.7741 15.55014992000926 1KUNS-PF 1 43467U 98067NQ 18137.48508787 .00006965 00000-0 10862-3 0 9997 2 43467 051.6415 171.7218 0002955 030.2308 111.1066 15.55073900000924 Irazu 1 43468U 98067NR 18137.26720330 .00011579 00000-0 17584-3 0 9999 2 43468 051.6392 172.8041 0001462 015.0456 345.0443 15.55064386100872 /EX